Regional Weather Roundup
Issued by NWS Northern Indiana

Home | Current Version | Previous Version | Text Only | Print | Product List | Glossary On
Versions: 1 2 3 4 5 6 7 8 9 10 11 12 13 14 15 16 17 18 19 20 21 22 23 24 25 26 27 28 29 30 31 32 33 34 35 36 37 38 39 40 41 42 43 44 45 46 47 48 49 50
000
ASUS43 KIWX 261410
RWRIWX

KIWX WEATHER ROUNDUP
NATIONAL WEATHER SERVICE NORTHERN INDIANA
1000 AM EDT TUE MAY 26 2015

NOTE: "FAIR" INDICATES FEW OR NO CLOUDS BELOW 12,000 FEET WITH NO
SIGNIFICANT WEATHER AND/OR OBSTRUCTIONS TO VISIBILITY.

* THESE STATIONS ARE NOT UNDER NWS QUALITY CONTROL. THEY ALSO MAY NOT
  REPORT WEATHER SUCH AS PRECIPITATION OR FOG.

INZ001>027-261500-
NORTHERN INDIANA

CITY           SKY/WX    TMP DP  RH WIND       PRES   REMARKS
GARY*          CLOUDY    72  66  83 S14       29.95F
VALPARAISO     CLOUDY    71  64  78 S14G22    29.97F
MICHIGAN CITY* CLOUDY    70  63  78 S6        29.98S
LAPORTE*       CLOUDY    71  67  87 S10       29.99F
KNOX*          CLOUDY    70  64  83 S12       29.98F
SOUTH BEND     CLOUDY    71  65  81 S10       30.00F
ELKHART*       CLOUDY    70  64  83 S8        30.02F
GOSHEN         CLOUDY    71  64  78 S15       30.02F
MONTICELLO*    CLOUDY    70  67  89 S9        29.98F
LOGANSPORT*    CLOUDY    70  63  78 S15       30.01F
ROCHESTER*     CLOUDY    72  68  88 S7        30.02F
WARSAW*        CLOUDY    70  64  83 S5        30.03S
ANGOLA*        CLOUDY    70  64  83 SW6       30.04F
FORT WAYNE     PTSUNNY   74  65  73 S21G26    30.06S
HUNTINGTON*    PTSUNNY   73  64  74 S10G18    30.04F
PERU/GRISSOM   MOSUNNY   73  66  79 S14       30.00F
MARION*        MOSUNNY   75  62  64 S16G23    30.04F

$$
INZ028>050-261500-
CENTRAL INDIANA

CITY           SKY/WX    TMP DP  RH WIND       PRES   REMARKS
LAFAYETTE      CLOUDY    70  65  84 S8        29.98F
KOKOMO*        CLOUDY    72  64  78 S15G21    30.01F
MUNCIE*        SUNNY     75  63  66 S13G22    30.05F
INDIANAPOLIS   CLOUDY    72  63  73 S15       30.02F

$$
MIZ043>046-050>051-056>058-064>065-071>073-077>080-261500-
SOUTHWEST LOWER MICHIGAN

CITY           SKY/WX    TMP DP  RH WIND       PRES   REMARKS
BATTLE CREEK   CLOUDY    68  63  84 S10       30.04F
BENTON HARBOR  CLOUDY    68  63  84 S5        29.99F
COLDWATER*     CLOUDY    67  63  87 S5        30.05F
HILLSDALE*     CLOUDY    68  67  97 SW7       30.07F
HOLLAND        CLOUDY    71  64  78 S15       30.00S
GRAND RAPIDS   CLOUDY    71  65  81 S16       30.01R
KALAMAZOO      CLOUDY    68  63  84 S12       30.03S
STURGIS*       CLOUDY    68  64  88 S9        30.03F
THREE RIVERS*  CLOUDY    69  64  84 S7        30.04S

$$
OHZ001>008-015>018-024>025-261500-
NORTHWEST OHIO

CITY           SKY/WX    TMP DP  RH WIND       PRES   REMARKS
WAUSEON*       FAIR      73  68  83 SW10      30.07F
DEFIANCE       CLOUDY    74  65  73 S12       30.06F
FINDLAY        SUNNY     76  64  66 S16       30.08F
TOLEDO EXPRESS MOSUNNY   73  64  73 SW9       30.07F
TOLEDO METCALF MOSUNNY   75  63  66 SW15      30.08F
LIMA           SUNNY     75  64  68 SW13      30.09F

$$
AND FOR LAKE MICHIGAN COASTAL AND OPEN LAKE BUOY OBSERVATIONS

STATION/POSITION TEMP    WIND        PRES    VSBY  WAVE
                 AIR SEA DIR/SP/G                  HT/PER
                 (F)     (DEG/KT/KT) (MB)    (MI)  (FT/S)
CALUMET HARBOR    71     160/ 10/ 14   N/A
MICHIGAN CITY     70     150/ 13/ 18   N/A
BURNS HARBOR      71     170/  9/ 19 1014.9S
SAINT JOSEPH      69     170/  4/ 11 1015.9F
SOUTH LAKE BUOY   49 38  170/ 14/ 16 1014.8F         1/ 3
4 MI NW BRIDGMAN  63 55  170/  8/  8   N/A           1/ 3
MICHIGAN CITY     64 52  180/ 10/ 12   N/A           1
MICHIGAN CITY CG     61              1017.5      6   1

$$
&&



USA.gov is the U.S. government's official web portal to all federal, state and local government web resources and services.